Regional Weather Roundup
Issued by NWS

Current Version | Previous Version | Graphics & Text | Print | Product List | Glossary On
Versions: 1 2 3 4 5 6 7 8 9 10 11 12 13 14 15 16 17 18 19 20 21 22 23 24 25 26 27 28 29 30 31 32 33 34 35 36 37 38 39 40 41 42 43 44 45 46 47 48 49 50
000
ASHW40 PHFO 302243
RWRHI

WEATHER ROUNDUP FOR HAWAII
NATIONAL WEATHER SERVICE HONOLULU HI
1200 PM HST THU JUN 30 2016

THIS IS AN AUTOMATED REPORT THAT HAS NOT BEEN QUALITY CONTROLLED.

NOTE..."FAIR" INDICATES FEW OR NO CLOUDS BELOW 12,000 FEET WITH NO
SIGNIFICANT WEATHER AND/OR OBSTRUCTIONS TO VISIBILITY.

* - THESE SITES REPORT LIMITED FIELDS

HIZ001>004-302300-
KAUAI-NIIHAU-

CITY           SKY/WX    TMP DP  RH WIND       PRES   REMARKS
LIHUE APT      PTSUNNY   82  72  71 NE15      30.13S
PORT ALLEN*      N/A     88 N/A N/A E22G32      N/A
POIPU*           N/A     86 N/A N/A NE9G22      N/A
PRINCEVILLE*     N/A     81 N/A N/A E10G17      N/A
KOKOLE POINT*    N/A     84 N/A N/A MISG        N/A
MOLOAA DAIRY*    N/A     84  73  70 E7G16       N/A  HX  91
WAIMEA HTS*      N/A     91  66  43 E12G24      N/A  HX  94
PUU OPAE*        N/A     79  68  69 W7          N/A
PUU LUA*       NOT AVBL
MAKAHA RIDGE*    N/A     81  64  57 NW1         N/A
$$

HIZ005>011-302300-
OAHU-

CITY           SKY/WX    TMP DP  RH WIND       PRES   REMARKS
HONOLULU       PTSUNNY   87  67  51 NE17G28   30.07F HX  90
KALAELOA       PTSUNNY   89  67  47 E14G24    30.08S HX  92
KANEOHE MCB    CLOUDY    83  73  72 NE8G17    30.08S
WHEELER FIELD  FAIR      83  69  60 E13G21    30.11S
BELLOWS*         N/A    N/A N/A N/A NE15        N/A
KAHUKU*          N/A    N/A N/A N/A VRB12G23    N/A
WHEELER*         N/A    N/A N/A N/A NE9G17      N/A
WAIANAE HARBOR   N/A    N/A N/A N/A NE10G21     N/A
DILLINGHAM*      N/A     90  70  51 MISG        N/A  HX  95
KAHUKU TRN*      N/A     81  70  69 CALM        N/A
KAWAILOA*        N/A     81  68  65 E9G23       N/A
KII*             N/A     82  73  74 E17G25      N/A
MAKUA RANGE*     N/A     90  66  45 W3G18       N/A  HX  92
OAHU FOREST NW   N/A    N/A N/A N/A MISG        N/A
SCHOFIELD BRK*   N/A     81  68  65 MISG        N/A
SCHOFIELD S*   NOT AVBL
WAIANAE VLY*     N/A     88  66  48 N5G18       N/A  HX  90
KUAOKALA*        N/A     79  70  73 NE22G31     N/A
HONOULIUULI*   NOT AVBL
MOKUOLOE IS*   NOT AVBL
PALEHUA*         N/A     75  66  73 E9G21       N/A
WAIAWA PHB*    NOT AVBL
$$

HIZ012>013-302300-
MOLOKAI-

CITY           SKY/WX    TMP DP  RH WIND       PRES   REMARKS
MOLOKAI AIRPT  SUNNY     83  71  67 NE21G33   30.09S
KALAUPAPA      NOT AVBL
MAKAPULAPAI*     N/A     86  73  66 E18G26      N/A  HX  93
MOLOKAI 1*     NOT AVBL
PUU ALII*        N/A     67  62  84 NE3G14      N/A
$$

HIZ016-302300-
KAHOOLAWE-

CITY           SKY/WX    TMP DP  RH WIND       PRES   REMARKS
KAHOOLAWE*       N/A     81 N/A N/A NE1         N/A
HAKIOAWA*        N/A     80  71  73 MISG        N/A
HONOKANAIA*    NOT AVBL
KANELOA*         N/A     84  70  61 E20G35    30.14S
KEALIALALO*    NOT AVBL
LUA MAKIKA*    NOT AVBL
$$

HIZ014>015-302300-
LANAI-

CITY           SKY/WX    TMP DP  RH WIND       PRES   REMARKS
LANAI CITY     CLOUDY    81  68  65 VRB6      30.12F
LANAI 1*       NOT AVBL
$$

HIZ017>028-302300-
MAUI-

CITY           SKY/WX    TMP DP  RH WIND       PRES   REMARKS
KAHULUI        MOSUNNY   84  72  67 NE22G30   30.07S
KAPALUA-W MAUI PTSUNNY   82  68  61 NE15      30.09
HANA AIRPORT   NOT AVBL
HANA*            N/A     81 N/A N/A NE9G15      N/A
HALEAKALA SUMM   N/A     55  37  50 SE29G41     N/A
MAALAEA BAY*     N/A     88 N/A N/A VRB18G35    N/A
HALEAKALA*     NOT AVBL
KAUPO GAP*       N/A     82  63  51 S5G18       N/A
KULA 1*          N/A     70  60  70 NW7G14      N/A
$$

HIZ023>026-302300-
BIG ISLAND OF HAWAII COAST AND LOWER SLOPES-

CITY           SKY/WX    TMP DP  RH WIND       PRES   REMARKS
KAILUA KONA    SUNNY     86  74  67 SW12      30.01F HX  94
HILO           MOSUNNY   84  72  65 E14       30.09S
HONOKAA*         N/A     73 N/A N/A VRB1        N/A
KAWAIHAE MWT*    N/A     86 N/A N/A W9          N/A
KAWAIHAE*        N/A     82 N/A N/A W5        30.01S
SOUTH POINT*     N/A     84 N/A N/A VRB22G31    N/A
UPOLU AIRPORT*   N/A    N/A N/A N/A NE20G31     N/A
KAMUELA*       PTCLDY    73  72  94 NE18      30.16S
HAKALAU*         N/A     72  43  34 S9G17       N/A
KALOKO-HONOKO*   N/A     86  72  62 SW9       30.01F HX  92
PALI 2*          N/A     88  50  27 SW9G18      N/A
KEALAKOMO*       N/A     86  72  62 E25G35      N/A  HX  92
KAUPULEHU*       N/A     90  66  45 NE16G24     N/A  HX  92
KAPAPALA*        N/A     89  66  45 E7G15       N/A  HX  91
LOWER KAHUKU*    N/A     79 N/A N/A NE3G15      N/A
PUHE CS*         N/A     88  70  55 W7          N/A  HX  92
PUHO CS*         N/A     87  71  57 SW3         N/A  HX  92
PTA KEAMUKU*     N/A     72  66  83 CALM        N/A
WAIKOLOA*        N/A     86  70  58 NE18G35     N/A  HX  90
$$

HIZ027>028-302300-
BIG ISLAND OF HAWAII INTERIOR AND SUMMMITS-

CITY           SKY/WX    TMP DP  RH WIND       PRES   REMARKS
BRADSHAW FIELD SUNNY     78  28  15 SE13G28   30.42F
MK VISITOR CEN   N/A     59  28  31 S7          N/A
MAUNA KEA*       N/A     41  21  45 S10         N/A
MAUNA LOA*       N/A    N/A N/A N/A MISG        N/A
MAUNA LOA 1*   NOT AVBL
PTA KIPUKA*      N/A     54  32  43 W12G17      N/A
PTA RANGE 17*    N/A    N/A N/A N/A E21G36      N/A
PTA WEST*        N/A     79  61  53 NW7G22      N/A
NENE CABIN*      N/A     66  55  68 E9G18       N/A
AHUMOA*          N/A     77  37  24 SE12G28     N/A
PTA PORTABLE*  NOT AVBL
PUU MALI*        N/A    N/A N/A N/A VRB9        N/A
$$

HIC003-302300-
NORTHWEST ISLANDS-

CITY           SKY/WX    TMP DP  RH WIND       PRES   REMARKS
MIDWAY ISLAND  PTSUNNY   81  66  61 E8        30.21S
MIDWAY NOS*      N/A     79 N/A N/A MISG      30.19S
FRENCH FRIGATE NOT AVBL
$$

PHZ110>124-180-302300-
BUOY REPORTS

STATION/POSITION TIME  TEMP    WIND        PRES    WAVE   SWELL
                       AIR SEA DIR/SP/G            HT/PER HT/DIR
                 (UTC) (F)     (DEG/KT/KT) (MB)    (FT/S) (FT/D)
BUOY 51001       2200   80 81   80/ 14/ 17 1017.9F
BUOY 51101       2150   78 80   90/ 17/ 19 1020.7R   6/ 7   2/180
BUOY 51100       NOT AVBL
BUOY 51002       2150   81 81   90/ 16/ 17 1015.9S   7/ 8   5
BUOY 51003       2150   80 81   70/ 10/ 12 1017.4F   5/ 7   5/ 90
BUOY 51004       2150   79 80   70/ 19/ 23 1016.1F   7/ 7   3/140
BARBERS PT BUOY  NOT AVBL
WAIMEA BAY BUOY  2204      79                N/A     4/ 8
KAILUA BAY BUOY  2211      79                N/A     5/ 7   2/140
LANAI BUOY       2215      81                N/A     3/15   2/190
BARBERS PT 2     NOT AVBL
PAUWELA MAUI     2209      78                N/A     5/ 8
HILO             2212      80                N/A     6/ 7   2/100
KANEOHE BAY BUOY 2206      78                N/A     6/ 8
HANALEI KAUAI    NOT AVBL
KAHULUI HARBOR   2200      80              1018.1F
HONOLULU HARBOR  2200      80              1019.0F
KILO NALU        NOT AVBL
HILO HARBOR      2200      78              1018.5F
MOKUOLOE         2100   82 81  100/ 13/ 19 1019.4F
NAWILIWILI       2200      82              1019.7F
WHOTS BUOY       NOT AVBL
BUOY 51028       NOT AVBL
$$

......................KEY........................................
  SKY/WX - SKY CONDITIONS/PRESENT WEATHER
  TMP    - TEMPERATURE IN FAHRENHEIT
  DWPT   - DEWPOINT IN FAHRENHEIT
  RH     - RELATIVE HUMIDITY IN PERCENT
  WIND   - DIRECTION AND SPEED /MPH FOR ISLANDS...KTS FOR BUOYS/
  PRES   - MEAN SEA LEVEL PRESSURE IN INCHES OF HG
  VSB    - VISIBILITY IN MILES
  HX     - HEAT INDEX
  WCI    - WIND CHILL INDEX
  VRB    - VARIABLE WIND DIRECTION
  N/A    - NOT AVAILABLE




USA.gov is the U.S. government's official web portal to all federal, state and local government web resources and services.